TimeEST,TemperatureF,Dew PointF,Humidity,Sea Level PressureIn,VisibilityMPH,Wind Direction,Wind SpeedMPH,Gust SpeedMPH,PrecipitationIn,Events,Conditions,WindDirDegrees,DateUTC
12:55 AM,53.6,40.6,62,29.97,10.0,SSW,12.7,-,N/A,,Mostly Cloudy,200,2012-11-23 05:55:00
1:28 AM,53.6,41.0,62,29.95,10.0,SSW,15.0,-,N/A,Rain,Light Rain,200,2012-11-23 06:28:00
1:40 AM,53.6,41.0,62,29.95,10.0,SW,19.6,24.2,N/A,,Mostly Cloudy,220,2012-11-23 06:40:00
1:55 AM,55.0,41.2,60,29.95,10.0,SSW,17.3,-,0.00,,Mostly Cloudy,210,2012-11-23 06:55:00
2:04 AM,55.4,41.0,58,29.94,10.0,SSW,15.0,-,N/A,,Overcast,210,2012-11-23 07:04:00
2:41 AM,55.4,41.0,58,29.94,10.0,SSW,17.3,-,N/A,,Overcast,210,2012-11-23 07:41:00
2:44 AM,55.4,41.0,58,29.94,10.0,SSW,20.7,-,N/A,,Overcast,210,2012-11-23 07:44:00
2:55 AM,56.3,40.3,55,29.94,10.0,SSW,18.4,24.2,N/A,,Overcast,210,2012-11-23 07:55:00
3:33 AM,55.4,39.2,54,29.92,10.0,SSW,16.1,-,N/A,,Overcast,210,2012-11-23 08:33:00
3:47 AM,55.4,41.0,58,29.92,10.0,SSW,15.0,-,N/A,,Overcast,210,2012-11-23 08:47:00
3:55 AM,55.8,40.6,57,29.92,10.0,SW,16.1,24.2,N/A,,Overcast,220,2012-11-23 08:55:00
4:29 AM,55.4,42.8,63,29.92,10.0,SW,16.1,-,N/A,Rain,Light Rain,220,2012-11-23 09:29:00
4:55 AM,53.1,45.0,74,29.91,10.0,SW,16.1,-,0.00,Rain,Light Rain,230,2012-11-23 09:55:00
5:10 AM,51.8,44.6,76,29.91,10.0,SW,12.7,-,N/A,,Light Drizzle,220,2012-11-23 10:10:00
5:11 AM,51.8,44.6,76,29.91,10.0,SW,13.8,-,N/A,,Overcast,220,2012-11-23 10:11:00
5:55 AM,52.2,47.3,83,29.91,10.0,SW,12.7,-,0.00,Rain,Light Rain,230,2012-11-23 10:55:00
6:30 AM,51.8,48.2,88,29.92,10.0,SW,13.8,-,N/A,,Overcast,230,2012-11-23 11:30:00
6:55 AM,51.8,47.8,86,29.93,10.0,WSW,13.8,-,0.00,,Overcast,250,2012-11-23 11:55:00
7:02 AM,51.8,46.4,82,29.93,10.0,West,12.7,-,N/A,,Overcast,260,2012-11-23 12:02:00
7:55 AM,47.5,40.3,76,29.96,10.0,West,16.1,-,N/A,,Mostly Cloudy,270,2012-11-23 12:55:00
8:10 AM,46.4,41.0,81,29.95,10.0,WSW,16.1,21.9,N/A,,Mostly Cloudy,250,2012-11-23 13:10:00
8:55 AM,41.7,36.3,81,29.98,10.0,West,6.9,-,N/A,,Scattered Clouds,260,2012-11-23 13:55:00
9:55 AM,42.4,33.8,71,29.99,10.0,West,17.3,-,N/A,,Scattered Clouds,260,2012-11-23 14:55:00
10:55 AM,43.7,31.8,63,30.00,10.0,West,17.3,26.5,N/A,,Partly Cloudy,260,2012-11-23 15:55:00
11:06 AM,44.6,32.0,61,30.00,10.0,West,21.9,29.9,N/A,,Mostly Cloudy,260,2012-11-23 16:06:00
11:55 AM,43.3,29.8,59,29.99,10.0,West,20.7,28.8,N/A,,Mostly Cloudy,270,2012-11-23 16:55:00
12:04 PM,44.6,30.2,57,29.99,10.0,WSW,20.7,31.1,N/A,,Overcast,250,2012-11-23 17:04:00
12:09 PM,44.6,30.2,57,29.99,10.0,West,16.1,29.9,N/A,,Overcast,260,2012-11-23 17:09:00
12:22 PM,42.8,28.4,57,29.98,10.0,WSW,25.3,31.1,N/A,,Overcast,250,2012-11-23 17:22:00
12:55 PM,41.9,27.3,56,29.99,10.0,West,19.6,35.7,N/A,,Overcast,280,2012-11-23 17:55:00
1:55 PM,39.7,26.1,58,29.99,10.0,West,21.9,31.1,N/A,,Overcast,270,2012-11-23 18:55:00
2:55 PM,38.7,24.1,56,30.00,10.0,West,23.0,32.2,N/A,,Mostly Cloudy,260,2012-11-23 19:55:00
3:41 PM,37.4,24.8,60,30.04,10.0,West,24.2,33.4,N/A,,Overcast,270,2012-11-23 20:41:00
3:47 PM,37.4,24.8,60,30.04,10.0,West,25.3,32.2,N/A,,Overcast,270,2012-11-23 20:47:00
3:55 PM,37.2,23.5,58,30.04,10.0,West,24.2,35.7,N/A,,Overcast,270,2012-11-23 20:55:00
4:21 PM,35.6,24.8,65,30.06,10.0,West,21.9,35.7,N/A,,Overcast,280,2012-11-23 21:21:00
4:55 PM,34.0,23.2,65,30.10,10.0,WNW,16.1,26.5,N/A,,Overcast,290,2012-11-23 21:55:00
5:55 PM,32.9,21.2,62,30.13,10.0,WNW,12.7,-,N/A,,Overcast,300,2012-11-23 22:55:00
6:55 PM,32.2,21.2,64,30.16,10.0,WNW,16.1,20.7,N/A,,Overcast,300,2012-11-23 23:55:00
7:55 PM,31.1,19.6,62,30.17,10.0,West,16.1,25.3,N/A,,Overcast,270,2012-11-24 00:55:00
8:55 PM,30.9,19.4,62,30.19,10.0,WNW,12.7,-,N/A,,Overcast,290,2012-11-24 01:55:00
9:55 PM,30.6,18.3,60,30.19,10.0,West,12.7,-,N/A,,Overcast,280,2012-11-24 02:55:00
10:42 PM,30.2,19.4,64,30.19,10.0,West,9.2,-,N/A,,Overcast,260,2012-11-24 03:42:00
10:55 PM,30.4,18.3,61,30.18,10.0,West,12.7,-,N/A,,Overcast,280,2012-11-24 03:55:00
11:26 PM,30.2,17.6,60,30.18,10.0,West,10.4,-,N/A,,Overcast,270,2012-11-24 04:26:00
11:55 PM,30.4,18.7,62,30.17,10.0,WSW,11.5,-,N/A,,Overcast,250,2012-11-24 04:55:00